STARLINK-1767 (46345 NORAD) Tracking and Keplerian Element Data

This shows tracking and keplerian element data for the satellite.

Feedback or suggestion? Click here.




ElementValue
Catalog46345
NameSTARLINK-1767
Epoch Orbit178
Epoch Day268.91668981
Epoch Year2020
RAAN324.5289
Inclination53.0023
Eccentricity0.0001117
Argument of Perigee53.9653
Mean Anonmoly137.7086
Mean Motion15.6281268
Decay Rate-0.00058591
L11 46345U 20062W 20268.91668981 -.00058591 00000-0 -63716-3 0 9994
L22 46345 53.0023 324.5289 0001117 53.9653 137.7086 15.62812680 1788

Live tracking and technical data element details for STARLINK-1767 (NORAD 46345). STARLINK-1767 can be tracked NOW for your location showing map with azimuth and elevation plus other details from your city location.

Track the satellite on the map from your city or location and see movement details for azimuth, elevation, latitude, longitude, range, height, and movement on the map or in text.







IsCatalogInMostPopularTable: catalog: 46345, numindb: 3
Update: records affected: 1



GetName: 46345 STARLINK-1767

Hit Count: updated at: Sat, 26 Sep 2020 16:06:08 GMT